VKG288 EKBI-LCLK

Flight info

Callsign VKG288
Flight time 3h 47m
Altitude 33000
Route RIDSI DCT NEDIK DCT SUBIX L867 REGLI DCT REVMA DCT DEMOP DCT BUDOP DCT AGMEL DCT NOPTI DCT NAVOD DCT ADORU UN739 EKI UW81 YAYLA UL854 KULAR UT39 TOMBI M855 DASNI M601 BONEK
Aircraft A321/M-SDE3FGHIRWY/LB1

Departure

Time 2026-05-04 05:20
Airport Billund Airport (EKBI)

Arrival

Time 2026-05-04 09:07
Airport Larnaca International Airport (LCLK)
Time Latitude Longitude Altitude Speed Heading
2026-05-04 04:24 55.74529 9.14815 216 ft 0 kts 357°
2026-05-04 05:09 55.74473 9.14829 222 ft 4 kts 338°
2026-05-04 05:09 55.74453 9.14853 219 ft 4 kts 290°
2026-05-04 05:10 55.74451 9.14867 225 ft 0 kts 267°
2026-05-04 05:13 55.74450 9.14827 220 ft 7 kts 268°
2026-05-04 05:13 55.74447 9.14721 216 ft 8 kts 266°
2026-05-04 05:13 55.74444 9.14627 222 ft 7 kts 266°
2026-05-04 05:14 55.74440 9.14545 223 ft 6 kts 262°
2026-05-04 05:14 55.74408 9.14476 218 ft 9 kts 202°
2026-05-04 05:14 55.74335 9.14470 220 ft 12 kts 177°
2026-05-04 05:14 55.74249 9.14479 216 ft 13 kts 176°
2026-05-04 05:15 55.74189 9.14540 216 ft 9 kts 113°
2026-05-04 05:15 55.74184 9.14646 216 ft 10 kts 88°
2026-05-04 05:15 55.74190 9.14820 216 ft 18 kts 86°
2026-05-04 05:15 55.74199 9.15099 216 ft 27 kts 86°
2026-05-04 05:16 55.74210 9.15444 219 ft 27 kts 87°
2026-05-04 05:16 55.74220 9.15774 223 ft 27 kts 87°
2026-05-04 05:16 55.74230 9.16103 216 ft 26 kts 86°
2026-05-04 05:16 55.74240 9.16426 216 ft 26 kts 86°
2026-05-04 05:17 55.74250 9.16741 218 ft 25 kts 87°
2026-05-04 05:17 55.74259 9.17049 216 ft 25 kts 86°
2026-05-04 05:17 55.74269 9.17352 216 ft 24 kts 86°
2026-05-04 05:17 55.74278 9.17643 216 ft 24 kts 87°
2026-05-04 05:18 55.74287 9.17915 216 ft 17 kts 86°
2026-05-04 05:18 55.74281 9.18057 216 ft 7 kts 110°
2026-05-04 05:18 55.74252 9.18118 224 ft 6 kts 144°
2026-05-04 05:18 55.74198 9.18149 218 ft 12 kts 172°
2026-05-04 05:19 55.74135 9.18151 216 ft 6 kts 193°
2026-05-04 05:19 55.74124 9.18098 216 ft 4 kts 266°
2026-05-04 05:19 55.74119 9.17940 223 ft 36 kts 266°
2026-05-04 05:19 55.74093 9.17070 220 ft 102 kts 267°
2026-05-04 05:20 55.74044 9.15489 217 ft 152 kts 266°
2026-05-04 05:20 55.73979 9.13456 530 ft 167 kts 268°
2026-05-04 05:20 55.74020 9.11431 1231 ft 165 kts 290°
2026-05-04 05:20 55.74803 9.10038 1849 ft 168 kts 335°
2026-05-04 05:21 55.76053 9.10047 2020 ft 202 kts 18°
2026-05-04 05:21 55.77276 9.11601 2182 ft 230 kts 35°
2026-05-04 05:21 55.78532 9.13637 2396 ft 255 kts 39°
2026-05-04 05:21 55.79822 9.15851 2992 ft 265 kts 40°
2026-05-04 05:22 55.81156 9.18165 3714 ft 269 kts 40°
2026-05-04 05:22 55.82393 9.20710 4457 ft 277 kts 57°
2026-05-04 05:22 55.83022 9.23984 5149 ft 285 kts 82°
2026-05-04 05:22 55.82836 9.27511 5775 ft 292 kts 109°
2026-05-04 05:23 55.81815 9.30651 6404 ft 295 kts 131°
2026-05-04 05:23 55.80526 9.33463 7018 ft 298 kts 131°
2026-05-04 05:23 55.79205 9.36324 7645 ft 300 kts 131°
2026-05-04 05:23 55.77879 9.39201 8311 ft 302 kts 131°
2026-05-04 05:24 55.76546 9.42104 8958 ft 305 kts 132°
2026-05-04 05:24 55.75199 9.45039 9605 ft 307 kts 132°
2026-05-04 05:24 55.73839 9.48004 10106 ft 314 kts 132°
2026-05-04 05:24 55.72408 9.51111 10231 ft 335 kts 132°
2026-05-04 05:25 55.70886 9.54409 10352 ft 354 kts 132°
2026-05-04 05:25 55.69311 9.57826 10585 ft 367 kts 132°
2026-05-04 05:25 55.67679 9.61367 11066 ft 373 kts 132°
2026-05-04 05:25 55.66029 9.64952 11632 ft 376 kts 132°
2026-05-04 05:26 55.64367 9.68557 12203 ft 379 kts 133°
2026-05-04 05:26 55.62685 9.72195 12780 ft 382 kts 133°
2026-05-04 05:26 55.60992 9.75845 13357 ft 385 kts 133°
2026-05-04 05:26 55.59305 9.79469 13907 ft 387 kts 133°
2026-05-04 05:27 55.57587 9.83157 14423 ft 390 kts 134°
2026-05-04 05:28 55.45845 10.08245 17702 ft 406 kts 135°
2026-05-04 05:29 55.44038 10.12086 18158 ft 408 kts 135°
2026-05-04 05:29 55.42214 10.15951 18562 ft 411 kts 135°
2026-05-04 05:29 55.40381 10.19830 18965 ft 412 kts 135°
2026-05-04 05:29 55.38541 10.23720 19357 ft 414 kts 135°
2026-05-04 05:31 55.25385 10.51338 22151 ft 428 kts 136°
2026-05-04 05:31 55.23463 10.55345 22534 ft 430 kts 136°
2026-05-04 05:32 55.21554 10.59321 22917 ft 432 kts 136°
2026-05-04 05:32 55.19615 10.63352 23285 ft 434 kts 136°
2026-05-04 05:32 55.17659 10.67408 23628 ft 436 kts 136°
2026-05-04 05:33 55.13715 10.75576 24243 ft 439 kts 136°
2026-05-04 05:33 55.11736 10.79664 24550 ft 441 kts 136°
2026-05-04 05:33 55.09777 10.83709 24847 ft 443 kts 136°
2026-05-04 05:33 55.07786 10.87820 25154 ft 444 kts 136°
2026-05-04 05:34 55.05776 10.91955 25451 ft 446 kts 136°
2026-05-04 05:34 55.03756 10.96096 25729 ft 448 kts 136°
2026-05-04 05:34 55.01729 11.00236 25971 ft 449 kts 136°
2026-05-04 05:34 54.99714 11.04347 26241 ft 451 kts 136°
2026-05-04 05:35 54.97668 11.08519 26526 ft 453 kts 136°
2026-05-04 05:35 54.95611 11.12702 26804 ft 455 kts 136°
2026-05-04 05:35 54.93538 11.16911 27077 ft 457 kts 136°
2026-05-04 05:35 54.91494 11.21063 27338 ft 458 kts 136°
2026-05-04 05:36 54.89409 11.25296 27589 ft 460 kts 136°
2026-05-04 05:36 54.87323 11.29522 27832 ft 462 kts 136°
2026-05-04 05:36 54.85221 11.33774 28078 ft 464 kts 136°
2026-05-04 05:36 54.83110 11.38035 28319 ft 465 kts 137°
2026-05-04 05:37 54.81017 11.42249 28561 ft 467 kts 137°
2026-05-04 05:37 54.78890 11.46519 28780 ft 468 kts 137°
2026-05-04 05:37 54.76752 11.50808 29044 ft 469 kts 137°
2026-05-04 05:38 54.72486 11.59346 29750 ft 467 kts 137°
2026-05-04 05:38 54.70357 11.63603 30032 ft 467 kts 137°
2026-05-04 05:38 54.68238 11.67819 30231 ft 468 kts 137°
2026-05-04 05:38 54.66090 11.72073 30446 ft 469 kts 137°
2026-05-04 05:39 54.63943 11.76318 30734 ft 468 kts 137°
2026-05-04 05:39 54.59669 11.84782 31330 ft 466 kts 137°
2026-05-04 05:39 54.57540 11.88994 31639 ft 465 kts 138°
2026-05-04 05:40 54.53310 11.97337 32205 ft 462 kts 138°
2026-05-04 05:40 54.51185 12.01512 32495 ft 461 kts 138°
2026-05-04 05:40 54.49029 12.05580 32775 ft 456 kts 143°
2026-05-04 05:41 54.46639 12.09076 32874 ft 445 kts 151°
2026-05-04 05:41 54.44183 12.12184 32887 ft 443 kts 151°
2026-05-04 05:41 54.39229 12.18452 32879 ft 441 kts 151°
2026-05-04 05:42 54.34287 12.24707 32886 ft 440 kts 151°
2026-05-04 05:42 54.29373 12.30892 32895 ft 440 kts 151°
2026-05-04 05:43 54.24423 12.37106 32888 ft 442 kts 151°
2026-05-04 05:45 54.04582 12.61873 32901 ft 441 kts 151°
2026-05-04 05:47 53.84696 12.86364 32892 ft 443 kts 151°
2026-05-04 05:47 53.79680 12.92496 32879 ft 444 kts 151°
2026-05-04 05:48 53.74668 12.98610 32882 ft 444 kts 151°
2026-05-04 05:48 53.69674 13.04684 32902 ft 444 kts 151°
2026-05-04 05:49 53.64641 13.10786 32887 ft 444 kts 150°
2026-05-04 05:49 53.59610 13.16875 32899 ft 445 kts 150°
2026-05-04 05:51 53.39447 13.41056 32918 ft 446 kts 151°
2026-05-04 05:52 53.34381 13.47086 32913 ft 446 kts 151°
2026-05-04 05:52 53.29340 13.53075 32921 ft 446 kts 150°
2026-05-04 05:54 53.09041 13.76968 32933 ft 447 kts 151°
2026-05-04 05:55 53.03970 13.82906 32935 ft 447 kts 151°
2026-05-04 05:55 52.98867 13.88865 32945 ft 447 kts 150°
2026-05-04 05:56 52.93781 13.94790 32951 ft 446 kts 150°
2026-05-04 05:56 52.88719 14.00651 32935 ft 445 kts 150°
2026-05-04 05:57 52.83623 14.06544 32936 ft 446 kts 150°
2026-05-04 05:57 52.78521 14.12427 32939 ft 446 kts 150°
2026-05-04 05:58 52.73441 14.18249 32940 ft 446 kts 151°
2026-05-04 05:58 52.68328 14.24105 32941 ft 446 kts 150°
2026-05-04 05:59 52.63233 14.29942 32955 ft 445 kts 150°
2026-05-04 05:59 52.58166 14.35713 32961 ft 445 kts 151°
2026-05-04 06:00 52.53069 14.41502 32964 ft 444 kts 151°
2026-05-04 06:00 52.48000 14.47251 32964 ft 444 kts 151°
2026-05-04 06:01 52.42909 14.53002 32969 ft 444 kts 151°
2026-05-04 06:03 52.24070 14.79690 32953 ft 451 kts 142°
2026-05-04 06:05 52.03342 15.10821 32988 ft 448 kts 142°
2026-05-04 06:06 51.98766 15.17641 32982 ft 448 kts 142°
2026-05-04 06:06 51.94166 15.24480 32981 ft 448 kts 142°
2026-05-04 06:07 51.89580 15.31282 32957 ft 448 kts 142°
2026-05-04 06:07 51.84974 15.38089 32973 ft 447 kts 142°
2026-05-04 06:08 51.80389 15.44833 32980 ft 447 kts 142°
2026-05-04 06:08 51.75781 15.51597 32984 ft 447 kts 142°
2026-05-04 06:09 51.71944 15.57224 32969 ft 447 kts 142°
2026-05-04 06:11 51.53485 15.84082 32992 ft 447 kts 142°
2026-05-04 06:13 51.34969 16.10723 32974 ft 448 kts 142°
2026-05-04 06:14 51.18709 16.33864 32993 ft 449 kts 142°
2026-05-04 06:15 51.14025 16.40487 32981 ft 449 kts 141°
2026-05-04 06:15 51.09363 16.47061 32979 ft 449 kts 141°
2026-05-04 06:16 51.04664 16.53660 32985 ft 450 kts 141°
2026-05-04 06:16 50.99991 16.60210 32993 ft 450 kts 141°
2026-05-04 06:17 50.95282 16.66810 32996 ft 450 kts 141°
2026-05-04 06:17 50.90609 16.73319 32991 ft 450 kts 141°
2026-05-04 06:18 50.85906 16.79847 32996 ft 450 kts 141°
2026-05-04 06:20 50.67064 17.05891 32985 ft 450 kts 141°
2026-05-04 06:21 50.55244 17.22058 32993 ft 450 kts 141°
2026-05-04 06:22 50.50523 17.28475 32981 ft 450 kts 142°
2026-05-04 06:25 50.18352 17.76130 33040 ft 456 kts 136°
2026-05-04 06:26 50.13833 17.83020 33043 ft 456 kts 136°
2026-05-04 06:26 50.09305 17.89954 33049 ft 456 kts 136°
2026-05-04 06:27 49.97756 18.06919 33059 ft 456 kts 141°
2026-05-04 06:28 49.92881 18.13244 33056 ft 456 kts 141°
2026-05-04 06:28 49.88047 18.19548 33050 ft 456 kts 141°
2026-05-04 06:29 49.83215 18.25958 33035 ft 457 kts 140°
2026-05-04 06:29 49.78388 18.32376 33055 ft 457 kts 140°
2026-05-04 06:30 49.73573 18.38749 33051 ft 457 kts 140°
2026-05-04 06:30 49.68746 18.45120 33040 ft 458 kts 140°
2026-05-04 06:31 49.63897 18.51514 33066 ft 458 kts 140°
2026-05-04 06:31 49.59035 18.57884 33073 ft 458 kts 140°
2026-05-04 06:33 49.38772 18.81595 33080 ft 459 kts 146°
2026-05-04 06:34 49.33488 18.87162 33090 ft 460 kts 146°
2026-05-04 06:34 49.28237 18.92668 33116 ft 459 kts 146°
2026-05-04 06:36 49.07156 19.14671 33116 ft 459 kts 146°
2026-05-04 06:37 49.01897 19.20117 33130 ft 459 kts 146°
2026-05-04 06:37 48.96605 19.25579 33144 ft 459 kts 146°
2026-05-04 06:38 48.91333 19.31017 33128 ft 460 kts 146°
2026-05-04 06:40 48.70064 19.52798 33171 ft 461 kts 146°
2026-05-04 06:40 48.64743 19.58221 33169 ft 460 kts 146°
2026-05-04 06:41 48.59447 19.63595 33172 ft 460 kts 146°
2026-05-04 06:41 48.54109 19.68992 33168 ft 460 kts 146°
2026-05-04 06:42 48.48813 19.74329 33170 ft 460 kts 146°
2026-05-04 06:44 48.27495 19.95722 33165 ft 461 kts 145°
2026-05-04 06:44 48.22155 20.01046 33168 ft 461 kts 146°
2026-05-04 06:45 48.16836 20.06326 33179 ft 461 kts 145°
2026-05-04 06:45 48.11481 20.11665 33174 ft 461 kts 145°
2026-05-04 06:46 48.06143 20.17005 33171 ft 461 kts 144°
2026-05-04 06:46 48.00828 20.22300 33175 ft 461 kts 145°
2026-05-04 06:48 47.79429 20.43449 33183 ft 461 kts 144°
2026-05-04 06:50 47.57979 20.64434 33204 ft 461 kts 144°
2026-05-04 06:51 47.52614 20.69650 33196 ft 460 kts 144°
2026-05-04 06:51 47.47283 20.74823 33197 ft 460 kts 144°
2026-05-04 06:52 47.41917 20.80008 33193 ft 460 kts 144°
2026-05-04 06:52 47.36550 20.85191 33189 ft 460 kts 144°
2026-05-04 06:53 47.31180 20.90363 33196 ft 460 kts 144°
2026-05-04 06:53 47.25835 20.95486 33200 ft 460 kts 144°
2026-05-04 06:54 47.21369 20.99767 33190 ft 460 kts 144°
2026-05-04 06:54 47.15999 21.04910 33188 ft 460 kts 144°
2026-05-04 06:55 47.10630 21.10046 33213 ft 460 kts 144°
2026-05-04 06:55 47.05262 21.15156 33209 ft 459 kts 144°
2026-05-04 06:57 46.83799 21.35469 33203 ft 460 kts 144°
2026-05-04 06:58 46.78443 21.40500 33197 ft 460 kts 144°
2026-05-04 06:58 46.73220 21.45847 33191 ft 456 kts 134°
2026-05-04 06:59 46.69234 21.52878 33186 ft 446 kts 116°
2026-05-04 06:59 46.65914 21.60442 33198 ft 452 kts 129°
2026-05-04 07:01 46.48490 21.80514 33421 ft 462 kts 138°
2026-05-04 07:01 46.45962 21.83400 33693 ft 462 kts 138°
2026-05-04 07:02 46.43428 21.86274 34011 ft 461 kts 138°
2026-05-04 07:02 46.40895 21.89125 34302 ft 460 kts 139°
2026-05-04 07:02 46.38360 21.91970 34547 ft 459 kts 139°
2026-05-04 07:02 46.35867 21.94765 34778 ft 459 kts 139°
2026-05-04 07:03 46.33334 21.97604 35006 ft 459 kts 139°
2026-05-04 07:03 46.30805 22.00434 35151 ft 459 kts 139°
2026-05-04 07:03 46.25676 22.05964 35186 ft 459 kts 140°
2026-05-04 07:04 46.20471 22.11378 35179 ft 460 kts 141°
2026-05-04 07:04 46.15307 22.16749 35184 ft 460 kts 140°
2026-05-04 07:05 46.10128 22.22187 35186 ft 459 kts 140°
2026-05-04 07:05 46.04991 22.27595 35183 ft 459 kts 140°
2026-05-04 07:06 45.97226 22.35711 35202 ft 459 kts 140°
2026-05-04 07:07 45.92039 22.41110 35181 ft 460 kts 140°
2026-05-04 07:09 45.71313 22.62583 35194 ft 460 kts 139°
2026-05-04 07:09 45.66108 22.67943 35167 ft 461 kts 139°
2026-05-04 07:10 45.60884 22.73307 35157 ft 461 kts 140°
2026-05-04 07:12 45.40018 22.94622 35151 ft 460 kts 140°
2026-05-04 07:12 45.34834 22.99882 35151 ft 460 kts 140°
2026-05-04 07:13 45.29618 23.05170 35176 ft 459 kts 139°
2026-05-04 07:13 45.24432 23.10412 35170 ft 458 kts 140°
2026-05-04 07:14 45.11466 23.23463 35147 ft 456 kts 140°
2026-05-04 07:15 45.06314 23.28636 35148 ft 456 kts 140°
2026-05-04 07:15 45.01124 23.33824 35148 ft 456 kts 140°
2026-05-04 07:16 44.95967 23.38965 35150 ft 455 kts 140°
2026-05-04 07:16 44.90783 23.44134 35146 ft 455 kts 140°
2026-05-04 07:17 44.85596 23.49292 35156 ft 456 kts 140°
2026-05-04 07:17 44.80429 23.54411 35143 ft 456 kts 140°
2026-05-04 07:18 44.75224 23.59556 35131 ft 457 kts 140°
2026-05-04 07:18 44.70025 23.64689 35144 ft 456 kts 140°
2026-05-04 07:19 44.64813 23.69825 35161 ft 458 kts 140°
2026-05-04 07:19 44.59588 23.74958 35143 ft 456 kts 141°
2026-05-04 07:20 44.54387 23.80066 35141 ft 456 kts 141°
2026-05-04 07:20 44.49183 23.85162 35142 ft 456 kts 141°
2026-05-04 07:22 44.28388 24.05399 35154 ft 456 kts 141°
2026-05-04 07:23 44.23137 24.10478 35155 ft 456 kts 141°
2026-05-04 07:23 44.17948 24.15481 35172 ft 456 kts 141°
2026-05-04 07:24 44.12720 24.20514 35158 ft 456 kts 141°
2026-05-04 07:24 44.07486 24.25537 35163 ft 456 kts 141°
2026-05-04 07:26 43.86634 24.45488 35182 ft 454 kts 142°
2026-05-04 07:27 43.81421 24.50448 35163 ft 454 kts 142°
2026-05-04 07:27 43.76199 24.55399 35176 ft 454 kts 143°
2026-05-04 07:28 43.71138 24.60579 35182 ft 451 kts 139°
2026-05-04 07:28 43.66303 24.66076 35185 ft 449 kts 137°
2026-05-04 07:29 43.61482 24.71584 35182 ft 448 kts 138°
2026-05-04 07:29 43.56639 24.76965 35175 ft 449 kts 139°
2026-05-04 07:30 43.51758 24.82302 35182 ft 447 kts 139°
2026-05-04 07:30 43.46892 24.87607 35174 ft 445 kts 139°
2026-05-04 07:31 43.42045 24.92904 35159 ft 444 kts 139°
2026-05-04 07:33 43.22813 25.13860 35152 ft 439 kts 139°
2026-05-04 07:33 43.18006 25.19065 35147 ft 439 kts 139°
2026-05-04 07:34 43.13212 25.24248 35148 ft 438 kts 139°
2026-05-04 07:34 43.08461 25.29381 35149 ft 436 kts 139°
2026-05-04 07:35 43.03678 25.34533 35133 ft 436 kts 139°
2026-05-04 07:35 42.98926 25.39636 35121 ft 437 kts 139°
2026-05-04 07:36 42.94134 25.44768 35118 ft 437 kts 139°
2026-05-04 07:38 42.75756 25.64380 35101 ft 438 kts 139°
2026-05-04 07:38 42.70950 25.69490 35106 ft 439 kts 140°
2026-05-04 07:39 42.66127 25.74584 35106 ft 439 kts 139°
2026-05-04 07:39 42.61301 25.79688 35106 ft 438 kts 139°
2026-05-04 07:40 42.56492 25.84764 35120 ft 437 kts 140°
2026-05-04 07:40 42.51718 25.89794 35113 ft 436 kts 140°
2026-05-04 07:41 42.46921 25.94834 35101 ft 436 kts 140°
2026-05-04 07:41 42.42120 25.99864 35089 ft 435 kts 140°
2026-05-04 07:42 42.37385 26.04828 35098 ft 432 kts 140°
2026-05-04 07:42 42.32630 26.09810 35108 ft 431 kts 140°
2026-05-04 07:43 42.27872 26.14779 35104 ft 431 kts 140°
2026-05-04 07:43 42.23139 26.19711 35094 ft 432 kts 140°
2026-05-04 07:44 42.18359 26.24672 35108 ft 433 kts 140°
2026-05-04 07:44 42.13586 26.29613 35111 ft 432 kts 140°
2026-05-04 07:45 42.08811 26.34548 35113 ft 431 kts 140°
2026-05-04 07:45 42.04042 26.39470 35119 ft 431 kts 140°
2026-05-04 07:46 41.99306 26.44361 35110 ft 431 kts 140°
2026-05-04 07:46 41.94540 26.49273 35107 ft 431 kts 140°
2026-05-04 07:47 41.89782 26.54160 35100 ft 430 kts 140°
2026-05-04 07:49 41.69797 26.71839 35082 ft 433 kts 149°
2026-05-04 07:49 41.64453 26.75621 35077 ft 434 kts 149°
2026-05-04 07:50 41.59145 26.79389 35080 ft 434 kts 149°
2026-05-04 07:50 41.53814 26.83222 35080 ft 434 kts 149°
2026-05-04 07:51 41.48482 26.87055 35082 ft 434 kts 149°
2026-05-04 07:51 41.43181 26.90840 35084 ft 434 kts 149°
2026-05-04 07:52 41.37839 26.94640 35085 ft 434 kts 149°
2026-05-04 07:52 41.32501 26.98429 35085 ft 434 kts 149°
2026-05-04 07:54 41.11161 27.13524 35071 ft 435 kts 149°
2026-05-04 07:55 41.05809 27.17309 35081 ft 436 kts 149°
2026-05-04 07:55 41.00467 27.21058 35084 ft 436 kts 149°
2026-05-04 07:56 40.95093 27.24824 35073 ft 436 kts 149°
2026-05-04 07:56 40.89724 27.28585 35075 ft 436 kts 149°
2026-05-04 07:57 40.84392 27.32307 35074 ft 436 kts 149°
2026-05-04 07:57 40.79011 27.36073 35069 ft 436 kts 149°
2026-05-04 07:58 40.73632 27.39818 35060 ft 437 kts 149°
2026-05-04 07:58 40.68261 27.43548 35066 ft 436 kts 149°
2026-05-04 07:59 40.62910 27.47261 35064 ft 437 kts 149°
2026-05-04 07:59 40.57517 27.50992 35044 ft 438 kts 149°
2026-05-04 08:00 40.52119 27.54729 35044 ft 440 kts 149°
2026-05-04 08:02 40.30374 27.69704 35053 ft 442 kts 149°
2026-05-04 08:02 40.24939 27.73425 35048 ft 442 kts 149°
2026-05-04 08:03 40.19489 27.77148 35048 ft 442 kts 149°
2026-05-04 08:03 40.14037 27.80866 35053 ft 442 kts 149°
2026-05-04 08:04 40.08573 27.84594 35028 ft 443 kts 149°
2026-05-04 08:04 40.03131 27.88303 35026 ft 444 kts 149°
2026-05-04 08:05 39.97643 27.92031 35025 ft 444 kts 149°
2026-05-04 08:05 39.92147 27.95754 35037 ft 445 kts 149°
2026-05-04 08:06 39.86615 27.99452 35040 ft 447 kts 153°
2026-05-04 08:06 39.80837 28.02400 35043 ft 450 kts 156°
2026-05-04 08:08 39.57373 28.14086 35024 ft 453 kts 157°
2026-05-04 08:11 39.30812 28.27212 35003 ft 457 kts 157°
2026-05-04 08:11 39.21871 28.31602 34997 ft 458 kts 157°
2026-05-04 08:12 39.15914 28.34507 34998 ft 458 kts 157°
2026-05-04 08:12 39.09938 28.37407 35008 ft 458 kts 157°
2026-05-04 08:13 39.03985 28.40306 34988 ft 460 kts 157°
2026-05-04 08:13 38.97996 28.43297 34979 ft 461 kts 156°
2026-05-04 08:14 38.92046 28.46330 34973 ft 461 kts 157°
2026-05-04 08:16 38.68127 28.58331 34970 ft 461 kts 158°
2026-05-04 08:16 38.62121 28.61331 34970 ft 462 kts 158°
2026-05-04 08:17 38.56405 28.64901 34970 ft 459 kts 144°
2026-05-04 08:17 38.51182 28.69602 34970 ft 459 kts 144°
2026-05-04 08:19 38.31038 28.87586 34946 ft 462 kts 144°
2026-05-04 08:20 38.25790 28.92248 34936 ft 463 kts 144°
2026-05-04 08:20 38.20514 28.96931 34941 ft 463 kts 144°
2026-05-04 08:21 38.15215 29.01631 34920 ft 464 kts 144°
2026-05-04 08:21 38.09889 29.06339 34922 ft 465 kts 144°
2026-05-04 08:22 38.04589 29.11013 34928 ft 466 kts 144°
2026-05-04 08:24 37.83217 29.29790 34912 ft 469 kts 145°
2026-05-04 08:24 37.77826 29.34506 34913 ft 471 kts 144°
2026-05-04 08:25 37.72449 29.39218 34911 ft 473 kts 144°
2026-05-04 08:25 37.67016 29.43965 34917 ft 475 kts 144°
2026-05-04 08:27 37.45230 29.62884 34904 ft 477 kts 145°
2026-05-04 08:28 37.39789 29.67583 34893 ft 477 kts 145°
2026-05-04 08:28 37.34307 29.72300 34894 ft 477 kts 145°
2026-05-04 08:29 37.28819 29.77025 34900 ft 478 kts 145°
2026-05-04 08:31 37.06877 29.95878 34892 ft 479 kts 146°
2026-05-04 08:33 36.84858 30.14686 34885 ft 479 kts 146°
2026-05-04 08:35 36.62821 30.33345 34862 ft 479 kts 147°
2026-05-04 08:35 36.57300 30.38005 34859 ft 479 kts 147°
2026-05-04 08:37 36.37995 30.54197 34851 ft 479 kts 147°
2026-05-04 08:38 36.32471 30.58820 34851 ft 479 kts 147°
2026-05-04 08:38 36.26923 30.63449 34838 ft 479 kts 148°
2026-05-04 08:40 36.04440 30.81225 34856 ft 475 kts 164°
2026-05-04 08:41 35.98089 30.82810 34849 ft 465 kts 182°
2026-05-04 08:41 35.91615 30.83164 34855 ft 465 kts 181°
2026-05-04 08:42 35.85125 30.83567 34863 ft 466 kts 181°
2026-05-04 08:42 35.78681 30.83975 34847 ft 466 kts 182°
2026-05-04 08:43 35.72182 30.84374 34863 ft 466 kts 181°
2026-05-04 08:43 35.68951 30.84899 34866 ft 472 kts 169°
2026-05-04 08:43 35.65858 30.86303 34869 ft 478 kts 155°
2026-05-04 08:43 35.63106 30.88542 34868 ft 483 kts 141°
2026-05-04 08:44 35.60814 30.91569 34865 ft 486 kts 126°
2026-05-04 08:44 35.59156 30.95196 34863 ft 487 kts 111°
2026-05-04 08:46 35.51999 31.23102 34862 ft 491 kts 107°
2026-05-04 08:46 35.49946 31.31126 34861 ft 492 kts 108°
2026-05-04 08:47 35.47897 31.39102 34862 ft 492 kts 108°
2026-05-04 08:47 35.45817 31.47171 34852 ft 494 kts 108°
2026-05-04 08:47 35.44790 31.51141 34699 ft 495 kts 108°
2026-05-04 08:48 35.43735 31.55221 33609 ft 507 kts 108°
2026-05-04 08:48 35.42659 31.59382 32611 ft 513 kts 108°
2026-05-04 08:48 35.41578 31.63569 31920 ft 511 kts 108°
2026-05-04 08:48 35.40519 31.67657 31360 ft 507 kts 107°
2026-05-04 08:49 35.39451 31.71761 30844 ft 503 kts 107°
2026-05-04 08:50 35.33179 31.95721 27392 ft 480 kts 107°
2026-05-04 08:50 35.32169 31.99553 26840 ft 476 kts 107°
2026-05-04 08:51 35.31151 32.03410 26302 ft 472 kts 107°
2026-05-04 08:51 35.30144 32.07228 25765 ft 468 kts 107°
2026-05-04 08:51 35.29149 32.11023 25206 ft 466 kts 106°
2026-05-04 08:51 35.28163 32.14808 24652 ft 464 kts 105°
2026-05-04 08:52 35.27197 32.18508 24136 ft 461 kts 105°
2026-05-04 08:52 35.26222 32.22238 23624 ft 457 kts 105°
2026-05-04 08:52 35.25256 32.25930 23061 ft 454 kts 105°
2026-05-04 08:52 35.24293 32.29604 22476 ft 450 kts 105°
2026-05-04 08:53 35.23339 32.33242 21907 ft 447 kts 105°
2026-05-04 08:54 35.16792 32.57972 18222 ft 428 kts 108°
2026-05-04 08:55 35.15872 32.61425 17707 ft 425 kts 108°
2026-05-04 08:55 35.14961 32.64850 17203 ft 422 kts 108°
2026-05-04 08:55 35.14059 32.68254 16736 ft 418 kts 108°
2026-05-04 08:55 35.13167 32.71613 16290 ft 414 kts 108°
2026-05-04 08:57 35.07191 32.94303 13271 ft 391 kts 101°
2026-05-04 09:01 35.01671 33.35070 8620 ft 317 kts 101°
2026-05-04 09:01 35.01310 33.37696 7959 ft 310 kts 101°
2026-05-04 09:01 35.00960 33.40246 7296 ft 305 kts 101°
2026-05-04 09:01 35.00612 33.42783 6586 ft 302 kts 101°
2026-05-04 09:02 35.00266 33.45303 5782 ft 301 kts 101°
2026-05-04 09:02 34.99919 33.47821 5013 ft 298 kts 100°
2026-05-04 09:02 34.99582 33.50261 4399 ft 293 kts 100°
2026-05-04 09:02 34.99240 33.52722 3933 ft 294 kts 100°
2026-05-04 09:03 34.98903 33.55143 3486 ft 282 kts 101°
2026-05-04 09:03 34.98582 33.57442 3070 ft 267 kts 100°
2026-05-04 09:03 34.98274 33.59632 2671 ft 259 kts 100°
2026-05-04 09:03 34.97970 33.61804 2584 ft 260 kts 99°
2026-05-04 09:04 34.97673 33.63930 2507 ft 248 kts 100°
2026-05-04 09:04 34.97386 33.65976 2395 ft 240 kts 101°
2026-05-04 09:04 34.96779 33.67807 2274 ft 229 kts 131°
2026-05-04 09:04 34.95583 33.68972 2170 ft 214 kts 162°
2026-05-04 09:05 34.94205 33.69301 1914 ft 196 kts 188°
2026-05-04 09:05 34.92961 33.68914 1467 ft 180 kts 210°
2026-05-04 09:05 34.91999 33.68055 1083 ft 161 kts 227°
2026-05-04 09:05 34.91256 33.67147 836 ft 145 kts 228°
2026-05-04 09:06 34.90562 33.66297 666 ft 133 kts 227°
2026-05-04 09:07 34.87004 33.61898 21 ft 27 kts 243°
2026-05-04 09:08 34.86954 33.61718 22 ft 13 kts 255°
2026-05-04 09:08 34.86935 33.61628 19 ft 9 kts 255°
2026-05-04 09:08 34.86918 33.61552 21 ft 9 kts 255°
2026-05-04 09:08 34.86915 33.61535 21 ft 0 kts 255°
2026-05-04 09:14 34.86912 33.61522 19 ft 4 kts 256°
2026-05-04 09:14 34.86900 33.61470 19 ft 9 kts 249°
2026-05-04 09:14 34.86861 33.61405 18 ft 9 kts 227°
2026-05-04 09:15 34.86823 33.61358 18 ft 7 kts 225°
2026-05-04 09:15 34.86794 33.61322 17 ft 5 kts 225°
2026-05-04 09:15 34.86779 33.61304 17 ft 1 kts 225°
2026-05-04 09:15 34.86775 33.61299 17 ft 1 kts 224°
2026-05-04 09:17 34.86647 33.61005 21 ft 8 kts 258°
2026-05-04 09:18 34.86655 33.60953 21 ft 8 kts 297°
2026-05-04 09:18 34.86698 33.60896 20 ft 8 kts 315°
2026-05-04 09:18 34.86739 33.60847 20 ft 8 kts 315°
2026-05-04 09:18 34.86778 33.60800 20 ft 7 kts 315°
2026-05-04 09:19 34.86801 33.60771 21 ft 2 kts 315°
2026-05-04 09:19 34.86806 33.60766 20 ft 0 kts 315°
2026-05-04 09:20 34.86810 33.60762 20 ft 3 kts 317°
2026-05-04 09:21 34.86841 33.60741 20 ft 7 kts 351°
2026-05-04 09:21 34.86870 33.60767 20 ft 4 kts 65°
2026-05-04 09:21 34.86869 33.60793 20 ft 3 kts 103°
2026-05-04 09:21 34.86850 33.60826 21 ft 7 kts 131°
2026-05-04 09:22 34.86810 33.60883 20 ft 7 kts 106°
2026-05-04 09:22 34.86828 33.60918 21 ft 4 kts 33°
2026-05-04 09:22 34.86849 33.60929 20 ft 3 kts 27°
2026-05-04 09:22 34.86871 33.60948 22 ft 3 kts 41°
2026-05-04 09:23 34.86879 33.60958 20 ft 1 kts 44°
2026-05-04 09:23 34.86880 33.60959 20 ft 0 kts 44°